GW1738 Weather Reports


time (UTC)temp
C
wind
direction
speed
KPH
gust
KPH
rain 1hr
cm
rain 24hr
cm
rain mn
cm
humidity
%
barometer
mb
20260510164359 27 99 0.0 6.4 0.00 0.00 0.00 40 1014.5
20260510163340 27 186 0.0 3.2 0.00 0.00 0.00 40 1014.7
20260510162322 27 159 0.0 3.2 0.00 0.00 0.00 39 1014.6
20260510161329 26 148 0.0 6.4 0.00 0.00 0.00 43 1014.7
20260510160331 26 355 1.6 3.2 0.00 0.00 0.00 45 1014.7
20260510155334 27 130 0.0 4.8 0.00 0.00 0.00 47 1014.7
20260510154338 26 173 0.0 6.4 0.00 0.00 0.00 47 1014.7
20260510153341 26 138 1.6 4.8 0.00 0.00 0.00 47 1014.8
20260510152324 25 277 0.0 1.6 0.00 0.00 0.00 54 1014.9
20260510151330 25 194 3.2 6.4 0.00 0.00 0.00 50 1015.0
20260510150330 25 41 1.6 4.8 0.00 0.00 0.00 56 1015.0
20260510145352 25 105 0.0 0.0 0.00 0.00 0.00 59 1014.9
20260510144332 24 61 0.0 3.2 0.00 0.00 0.00 56 1014.9
20260510143334 24 258 0.0 1.6 0.00 0.00 0.00 69 1014.8
20260510142337 23 273 0.0 0.0 0.00 0.00 0.00 59 1014.8
20260510141320 22 55 0.0 0.0 0.00 0.00 0.00 62 1014.7
20260510140342 22 113 0.0 0.0 0.00 0.00 0.00 72 1014.7
20260510135336 22 113 0.0 0.0 0.00 0.00 0.00 74 1014.7
20260510134338 21 113 0.0 0.0 0.00 0.00 0.00 80 1014.6
20260510133342 20 113 0.0 0.0 0.00 0.00 0.00 80 1014.5
20260510132324 20 91 0.0 0.0 0.00 0.00 0.00 82 1014.7
20260510131329 18 91 0.0 0.0 0.00 0.00 0.00 88 1014.7
20260510130330 18 91 0.0 0.0 0.00 0.00 0.00 90 1014.5
20260510125332 17 91 0.0 0.0 0.00 0.00 0.00 94 1014.4
20260510124332 16 91 0.0 0.0 0.00 0.00 0.00 96 1014.3
20260510123333 15 91 0.0 0.0 0.00 0.00 0.00 97 1014.4
20260510122317 13 91 0.0 0.0 0.00 0.00 0.00 98 1014.2
20260510121328 13 91 0.0 0.0 0.00 0.00 0.00 97 1014.1
20260510120331 12 91 0.0 0.0 0.00 0.00 0.00 97 1014.0
20260510115317 12 91 0.0 0.0 0.00 0.00 0.00 97 1013.9
20260510114352 12 91 0.0 0.0 0.00 0.00 0.00 97 1013.7
20260510113332 11 91 0.0 0.0 0.00 0.00 0.00 97 1013.7
20260510112336 11 91 0.0 0.0 0.00 0.00 0.00 97 1013.4
20260510111339 11 91 0.0 0.0 0.00 0.00 0.00 97 1013.3
20260510110340 11 91 0.0 0.0 0.00 0.00 0.00 96 1013.2
20260510105338 11 91 0.0 0.0 0.00 0.00 0.00 96 1012.9
20260510104342 11 91 0.0 0.0 0.00 0.00 0.00 96 1012.9
20260510103323 11 91 0.0 0.0 0.00 0.00 0.00 96 1012.8
20260510102326 11 91 0.0 0.0 0.00 0.00 0.00 96 1012.7
20260510101333 11 91 0.0 0.0 0.00 0.00 0.00 96 1012.6
20260510100331 11 91 0.0 0.0 0.00 0.00 0.00 96 1012.6
20260510095331 12 91 0.0 0.0 0.00 0.00 0.00 96 1012.2
20260510094334 12 91 0.0 0.0 0.00 0.00 0.00 95 1012.2
20260510093337 12 91 0.0 0.0 0.00 0.00 0.00 96 1012.0
20260510092339 12 91 0.0 0.0 0.00 0.00 0.00 95 1012.0
20260510091324 12 91 0.0 0.0 0.00 0.00 0.00 95 1011.9
20260510090328 12 91 0.0 0.0 0.00 0.00 0.00 95 1011.9
20260510085330 13 91 0.0 0.0 0.00 0.00 0.00 95 1011.8
20260510084335 13 91 0.0 0.0 0.00 0.00 0.00 95 1011.6
20260510083318 13 91 0.0 0.0 0.00 0.00 0.00 95 1011.7
20260510082329 13 91 0.0 1.6 0.00 0.00 0.00 95 1011.7
20260510081404 13 91 0.0 0.0 0.00 0.00 0.00 95 1011.7
20260510080342 14 91 0.0 0.0 0.00 0.00 0.00 95 1011.7
20260510075338 14 91 0.0 0.0 0.00 0.00 0.00 95 1011.5
20260510074320 14 91 0.0 0.0 0.00 0.00 0.00 95 1011.4
20260510073351 14 91 0.0 0.0 0.00 0.00 0.00 95 1011.3
20260510072316 15 91 0.0 0.0 0.00 0.00 0.00 95 1011.3
20260510071325 15 91 0.0 0.0 0.00 0.00 0.00 94 1011.3
20260510070329 15 91 0.0 0.0 0.00 0.00 0.00 95 1011.4
20260510065332 15 91 0.0 0.0 0.00 0.00 0.00 95 1011.2
20260510064317 15 91 0.0 0.0 0.00 0.00 0.00 94 1011.5
20260510063320 15 91 0.0 0.0 0.00 0.00 0.00 94 1011.3
20260510062324 15 91 0.0 0.0 0.00 0.00 0.00 95 1011.3
20260510061331 15 91 0.0 0.0 0.00 0.00 0.00 94 1011.5
20260510060359 15 91 0.0 0.0 0.00 0.00 0.00 94 1011.6
20260510055320 15 91 0.0 0.0 0.00 0.00 0.00 94 1011.7
20260510054323 15 91 0.0 0.0 0.00 0.00 0.00 94 1011.7
20260510053326 15 91 0.0 0.0 0.00 0.00 0.00 93 1011.8
20260510052330 15 91 0.0 0.0 0.00 0.00 0.00 93 1011.7
20260510051317 15 91 0.0 0.0 0.00 0.00 0.00 93 1011.7
20260510050318 15 91 0.0 0.0 0.00 0.00 0.00 92 1011.8
20260510045338 15 91 0.0 0.0 0.00 0.00 0.00 91 1011.8
20260510044326 15 91 0.0 0.0 0.00 0.00 0.00 92 1011.8
20260510043329 15 91 0.0 0.0 0.00 0.00 0.00 91 1011.7
20260510042358 15 91 0.0 0.0 0.00 0.00 0.00 91 1011.7
20260510041340 15 91 0.0 0.0 0.00 0.00 0.00 90 1011.7
20260510040343 15 91 0.0 0.0 0.00 0.00 0.00 90 1011.7
20260510035328 15 91 0.0 0.0 0.00 0.00 0.00 90 1011.5
20260510034332 15 91 0.0 0.0 0.00 0.00 0.00 90 1011.5
20260510033337 15 91 0.0 0.0 0.00 0.00 0.00 90 1011.4
20260510032338 15 91 0.0 0.0 0.00 0.00 0.00 89 1011.4
20260510031326 15 91 0.0 0.0 0.00 0.00 0.00 88 1011.3
20260510030329 16 91 0.0 0.0 0.00 0.00 0.00 88 1011.3
20260510025333 16 91 0.0 0.0 0.00 0.00 0.00 88 1011.3
20260510024356 16 91 0.0 0.0 0.00 0.00 0.00 87 1011.1
20260510023318 16 91 0.0 0.0 0.00 0.00 0.00 87 1011.0
20260510022322 16 91 0.0 0.0 0.00 0.00 0.00 87 1010.9
20260510021324 16 91 0.0 0.0 0.00 0.00 0.00 86 1010.8
20260510020328 16 91 0.0 0.0 0.00 0.00 0.00 85 1010.6
20260510015331 16 91 0.0 0.0 0.00 0.00 0.00 85 1010.5
20260510014334 16 91 0.0 0.0 0.00 0.00 0.00 84 1010.3
20260510013316 17 91 0.0 0.0 0.00 0.00 0.00 85 1010.4
20260510012339 17 91 0.0 0.0 0.00 0.00 0.00 84 1010.2
20260510011328 17 91 0.0 0.0 0.00 0.00 0.00 82 1010.1
20260510010329 17 91 0.0 0.0 0.00 0.00 0.00 82 1010.0
20260510005352 17 91 0.0 0.0 0.00 0.00 0.00 80 1009.8
20260510004333 18 91 0.0 0.0 0.00 0.00 0.00 79 1009.9
20260510003316 18 91 0.0 0.0 0.00 0.00 0.00 78 1009.7
20260510002355 18 91 0.0 0.0 0.00 0.00 0.00 77 1009.7
20260510001338 19 91 0.0 0.0 0.00 0.00 0.00 76 1009.6
20260510000337 20 91 0.0 0.0 0.00 0.00 0.00 76 1009.6
20260509235337 20 91 0.0 0.0 0.00 0.00 0.00 76 1009.5
20260509234339 20 91 0.0 0.0 0.00 0.00 0.00 73 1009.4
20260509233324 20 91 0.0 0.0 0.00 0.00 0.00 71 1009.1
20260509232328 21 91 0.0 0.0 0.00 0.00 0.00 72 1009.2
20260509231317 21 91 0.0 0.0 0.00 0.00 0.00 69 1009.3
20260509230340 21 91 0.0 1.6 0.00 0.00 0.00 70 1009.3
20260509225340 21 57 0.0 1.6 0.00 0.00 0.00 68 1009.1
20260509224323 21 189 0.0 0.0 0.00 0.00 0.00 68 1009.0
20260509223326 21 189 0.0 0.0 0.00 0.00 0.00 65 1009.2
20260509222330 22 189 0.0 1.6 0.00 0.00 0.00 64 1009.2
20260509221338 22 189 0.0 1.6 0.00 0.00 0.00 64 1009.2
20260509220343 22 189 0.0 1.6 0.00 0.00 0.00 61 1009.1
20260509215348 22 189 0.0 1.6 0.00 0.00 0.00 62 1009.2
20260509214331 22 189 0.0 1.6 0.00 0.00 0.00 61 1009.0
20260509213336 22 189 1.6 4.8 0.00 0.00 0.00 58 1009.0
20260509212321 23 199 1.6 3.2 0.00 0.00 0.00 61 1008.9
20260509211330 23 163 1.6 3.2 0.00 0.00 0.00 57 1008.7
20260509210335 23 308 0.0 4.8 0.00 0.00 0.00 55 1008.9
20260509205318 23 190 1.6 6.4 0.00 0.00 0.00 56 1008.8
20260509204337 22 242 1.6 4.8 0.00 0.00 0.00 60 1008.8
20260509203320 22 210 0.0 1.6 0.00 0.00 0.00 62 1008.8
20260509202326 22 197 0.0 1.6 0.00 0.00 0.00 60 1008.7
20260509201332 22 254 0.0 4.8 0.00 0.00 0.00 63 1008.9
20260509200334 22 151 1.6 3.2 0.00 0.00 0.00 62 1008.9
20260509195339 22 161 1.6 3.2 0.00 0.00 0.00 63 1009.0
20260509194322 22 176 1.6 4.8 0.00 0.00 0.00 59 1009.0
20260509193326 22 198 1.6 3.2 0.00 0.00 0.00 59 1009.2
20260509192328 22 209 0.0 4.8 0.00 0.00 0.00 57 1009.4
20260509191337 22 172 3.2 8.0 0.00 0.00 0.00 58 1009.5
20260509190338 22 101 0.0 3.2 0.00 0.00 0.00 60 1009.7
20260509185347 22 206 0.0 3.2 0.00 0.00 0.00 60 1009.9
20260509184357 22 306 1.6 8.0 0.00 0.00 0.00 54 1009.9
20260509183339 23 261 1.6 4.8 0.00 0.00 0.00 53 1010.0
20260509182322 23 88 0.0 6.4 0.00 0.00 0.00 57 1010.1
20260509181327 22 300 0.0 4.8 0.00 0.00 0.00 54 1010.2
20260509180332 23 134 1.6 3.2 0.00 0.00 0.00 56 1010.2
20260509175336 22 233 1.6 3.2 0.00 0.00 0.00 57 1010.4
20260509174319 22 251 0.0 3.2 0.00 0.00 0.00 57 1010.4
20260509173323 23 178 1.6 3.2 0.00 0.00 0.00 54 1010.4
20260509172348 23 323 0.0 8.0 0.00 0.00 0.00 56 1010.3
20260509171333 23 49 3.2 4.8 0.00 0.00 0.00 57 1010.5
20260509170331 22 164 1.6 4.8 0.00 0.00 0.00 60 1010.6
20260509165335 22 206 1.6 4.8 0.00 0.00 0.00 56 1010.9